RH
100 100 100 100 100 100 100 100 100 100 100 100 100 100 100 100 100 100 100 100 100 100 87 80 54 41 47 46 46 45 40 95 100 100 100 96 100 100 100 100 100 72 67
100 100 100 100 100 100 100 100 100 100 100 100 100 100 100 100 100 100 100 100 100 100 100 100 82 70 45 38 44 45 48 72 99 100 100 100 100 100 97 100 100 100 100
94 100 100 100 100 100 100 100 100 100 100 100 100 100 100 100 100 100 100 100 100 100 100 100 79 64 57 40 34 38 46 52 88 100 100 100 100 100 100 100 100 100 100
22 61 99 100 100 100 100 100 100 100 100 100 100 100 100 100 100 100 100 100 100 100 100 99 92 85 73 46 50 34 42 50 54 83 100 100 100 100 100 100 100 100 82
19 19 28 54 93 100 100 100 100 100 100 100 100 100 100 100 100 100 100 100 100 100 100 100 100 100 78 87 79 57 34 42 54 52 100 100 100 100 100 100 100 100 100
21 20 20 22 28 66 98 100 100 100 100 100 100 100 100 100 100 100 100 100 100 100 100 100 100 100 100 96 69 72 45 37 49 54 67 100 100 100 100 100 100 100 100
23 23 21 23 25 28 50 100 100 100 100 100 100 100 100 100 100 100 100 100 100 100 100 100 96 100 100 100 83 82 52 50 37 55 62 96 100 100 100 100 100 100 100
23 25 24 25 26 28 33 55 100 100 100 100 100 100 97 100 100 100 100 94 99 100 100 100 100 100 100 95 99 68 81 60 36 62 64 84 100 100 100 100 100 100 100
26 30 26 25 26 28 29 38 64 97 100 100 100 100 100 100 100 100 81 100 100 100 100 100 100 100 100 98 87 85 78 71 54 49 75 84 91 100 100 100 100 100 100
24 28 28 28 29 29 30 30 34 53 86 100 100 98 100 100 100 100 100 100 96 94 100 100 100 100 100 100 91 86 68 65 46 48 38 48 67 76 92 100 100 100 100
26 27 30 28 29 31 32 33 36 49 82 85 100 100 100 100 100 100 100 100 100 100 100 100 100 100 100 100 100 100 100 70 52 49 49 40 69 64 72 84 100 100 100
24 31 32 34 33 32 32 30 35 61 77 81 100 100 100 100 100 100 100 100 100 100 100 100 100 97 100 73 79 92 100 88 96 52 59 45 80 69 73 66 81 96 97
22 28 33 35 38 37 35 34 39 43 53 80 82 100 100 100 100 100 100 100 100 100 100 100 100 99 100 100 100 100 100 100 97 99 100 64 45 85 96 91 99 100 100
38 34 37 36 35 35 38 40 38 45 58 47 67 100 89 100 100 100 100 100 100 100 100 100 100 100 100 100 93 100 100 100 100 80 98 100 86 100 100 100 100 100 100
43 53 45 41 40 42 42 42 42 47 46 46 66 81 68 91 100 100 100 100 100 100 100 100 100 100 100 100 96 100 100 96 100 100 100 76 93 100 100 100 100 100 100
37 50 64 51 51 45 47 45 46 44 43 63 60 82 82 82 85 98 100 100 100 100 100 100 100 100 100 100 100 100 100 100 84 84 76 100 100 100 100 100 100 100 100
39 38 52 59 55 50 46 48 47 46 45 40 44 60 79 78 74 92 100 100 100 100 100 100 100 100 100 100 100 100 100 100 100 100 98 89 100 100 100 100 100 100 100
44 43 52 57 69 54 50 51 53 65 65 67 64 62 62 76 90 91 100 98 100 100 100 100 100 100 100 100 100 100 100 100 100 100 100 100 99 100 100 100 100 100 100
51 48 52 57 59 60 54 50 53 55 64 78 80 85 77 65 65 73 95 100 100 100 100 100 100 100 100 100 100 100 100 100 100 100 100 100 100 100 100 100 100 100 100
50 51 52 56 64 60 58 63 61 59 61 57 59 68 62 60 62 82 98 100 100 100 100 100 100 100 100 100 100 100 100 100 100 100 100 100 100 100 100 100 100 100 100
52 62 62 62 70 74 77 76 73 74 73 72 66 78 67 67 67 77 76 92 100 88 92 100 100 100 100 100 100 100 100 100 100 100 100 100 100 100 100 100 100 100 100
41 44 46 56 64 62 64 66 79 83 75 71 71 77 76 72 90 84 81 80 82 89 89 91 100 100 99 100 100 96 96 100 100 100 100 100 100 100 100 100 100 100 100
33 38 40 48 60 55 50 49 49 55 62 66 60 67 75 71 67 72 82 87 89 93 100 97 100 96 93 99 77 97 79 90 85 85 100 100 100 100 100 100 100 100 100
27 28 29 31 36 38 38 40 43 40 47 54 67 66 67 64 63 62 61 60 60 63 66 73 84 92 100 91 93 84 69 74 72 70 68 73 82 98 100 100 100 100 100
24 26 27 28 30 32 38 42 44 46 48 52 54 65 74 73 71 68 64 62 60 57 55 51 52 61 74 72 83 80 89 67 72 75 61 70 67 68 74 85 92 96 98
21 22 24 26 30 30 31 36 42 44 46 51 58 58 64 71 69 70 73 69 68 64 60 58 56 56 53 57 58 64 70 74 72 70 67 65 55 54 61 64 65 68 69
Wind_Speed
120 117 115 111 110 111 108 100 101 100 98 94 88 86 78 76 73 74 68 63 63 63 65 63 57 53 52 46 53 54 73 84 80 84 81 60 69 65 65 62 58 61 60
125 122 120 117 111 108 110 107 102 107 106 97 95 92 91 81 82 75 74 67 65 64 62 63 64 60 60 52 50 52 56 77 75 83 84 76 68 70 70 64 59 54 54
130 131 127 122 118 115 116 116 108 106 110 108 96 98 100 90 84 82 75 75 67 66 66 71 70 68 62 60 57 51 56 60 72 80 78 80 71 71 72 67 63 65 56
117 128 133 131 129 123 120 119 118 108 109 110 103 96 99 99 94 86 85 74 79 71 72 71 68 66 73 69 67 62 57 56 68 70 83 83 75 71 73 73 69 62 63
100 108 118 127 135 139 130 125 118 116 107 110 107 106 99 100 98 92 87 81 78 79 77 74 74 70 71 67 66 68 69 61 64 70 82 88 84 74 79 73 73 70 61
88 94 100 109 117 125 130 129 125 122 116 112 112 107 101 102 103 95 95 93 85 85 81 81 78 80 72 73 72 70 70 69 67 69 77 89 88 76 83 77 75 73 70
78 86 91 97 105 112 117 123 124 125 123 119 118 110 105 100 98 103 95 90 91 89 84 85 86 82 77 77 76 70 66 72 71 73 73 81 90 90 83 79 80 79 78
72 78 85 91 97 104 109 114 119 125 126 125 121 115 110 104 103 103 102 94 94 89 88 83 86 84 84 80 76 78 77 76 76 69 75 76 81 82 86 80 81 83 80
68 74 80 86 92 97 103 108 112 119 124 126 128 127 113 112 100 100 103 98 96 94 91 89 87 87 86 87 80 78 79 78 78 80 76 76 78 79 84 83 80 86 86
66 71 77 83 88 94 100 104 107 110 115 121 121 128 127 120 113 112 110 106 104 100 100 98 99 96 93 90 87 83 85 83 84 79 87 83 85 84 82 79 85 86 89
65 68 72 77 83 89 95 100 104 106 111 115 119 120 120 121 122 125 119 111 112 110 105 105 95 97 98 94 89 85 86 88 87 83 84 89 85 85 85 84 83 86 94
66 66 70 73 79 87 93 97 101 107 111 114 116 113 117 118 119 118 119 117 121 113 114 112 106 105 105 104 104 92 87 87 90 90 89 85 90 89 86 87 87 88 98
61 65 70 73 78 82 87 92 98 102 107 109 112 114 119 117 121 121 117 121 123 115 112 117 111 111 111 103 102 100 98 93 91 90 96 93 93 95 95 93 92 94 93
52 59 65 70 76 80 83 88 94 99 103 107 110 117 119 121 115 124 123 121 118 120 111 114 118 114 111 113 114 110 107 101 101 99 101 99 100 101 102 100 100 97 100
55 55 60 65 71 77 80 84 89 96 100 103 107 114 112 116 116 115 118 116 111 113 114 110 113 117 114 114 116 116 115 111 105 105 108 105 107 108 108 108 105 105 105
55 60 61 63 67 74 78 83 88 92 93 98 102 106 108 106 108 111 110 111 112 111 113 114 119 114 124 120 117 117 119 119 119 114 109 115 112 113 113 115 115 113 109
58 58 64 65 68 71 76 80 84 87 91 95 98 102 106 108 108 108 109 112 109 114 114 118 116 117 118 113 117 114 114 117 119 118 119 119 124 121 120 118 119 115 117
56 57 60 64 69 69 71 77 82 83 87 89 90 94 97 101 101 103 106 107 111 117 118 122 123 120 119 120 121 122 128 130 125 118 121 122 125 126 125 125 125 123 121
56 57 59 64 67 69 71 71 75 82 86 88 91 94 94 94 96 98 100 105 109 114 119 120 118 121 122 125 126 125 127 129 127 126 128 129 130 128 131 130 130 128 129
54 57 59 62 67 68 67 69 72 75 78 85 88 93 95 95 97 99 101 106 110 111 116 117 119 113 118 122 120 126 125 133 130 130 130 132 133 134 134 135 139 135 135
53 56 59 62 64 66 69 71 72 74 77 80 82 87 90 93 96 102 103 107 112 109 115 118 116 117 120 118 123 123 126 127 128 132 130 135 137 138 143 140 143 142 144
53 55 57 61 63 64 66 68 71 74 76 79 80 82 85 86 92 97 102 106 108 111 111 114 117 117 121 119 127 127 128 128 131 130 133 135 138 141 144 144 145 149 148
53 56 58 60 63 65 65 68 70 72 75 77 79 80 82 83 86 92 96 100 104 109 112 115 117 123 121 121 122 119 122 123 129 132 134 137 138 141 145 148 147 149 152
52 53 55 59 63 65 65 66 67 69 71 76 77 78 79 80 83 86 89 92 96 99 103 109 112 119 125 126 128 125 126 128 126 129 128 135 141 146 147 149 151 155 155
51 52 54 56 59 62 64 67 68 69 68 70 75 77 79 80 80 81 84 88 92 95 98 102 106 111 117 122 126 130 128 130 128 130 132 131 134 139 144 148 152 154 157
50 51 54 56 58 61 62 64 66 69 69 71 73 74 77 78 79 80 82 85 87 89 91 95 98 103 108 114 121 127 127 132 131 134 134 135 136 137 139 145 149 150 153
Wind_Direction
241 242 243 245 247 246 243 243 247 244 242 242 243 244 243 245 247 245 246 246 246 243 247 250 249 251 246 240 228 224 220 217 220 221 219 227 223 221 225 229 236 237 239
239 242 242 242 241 244 241 241 243 246 243 243 242 243 244 244 245 245 244 244 244 246 246 246 249 250 248 242 239 232 229 222 220 221 221 222 229 223 226 234 231 227 226
237 236 237 240 243 243 245 244 243 244 244 243 242 241 243 241 244 244 242 244 242 244 245 246 247 248 249 250 249 243 228 233 223 219 219 225 227 231 227 226 230 228 230
239 237 235 236 238 242 242 244 242 242 243 243 240 242 241 243 244 245 245 240 244 237 243 245 244 246 247 250 252 246 238 235 228 224 219 220 226 230 231 223 225 228 229
239 237 235 236 236 238 239 241 240 238 239 240 239 242 242 240 240 245 242 237 241 240 237 244 244 239 243 245 244 246 247 237 232 228 224 219 221 228 222 222 226 227 225
236 233 232 232 231 232 234 235 237 236 237 239 237 239 239 240 240 241 242 238 233 238 237 240 242 242 243 244 247 247 245 242 233 230 229 224 221 220 225 223 223 224 221
232 230 227 227 227 228 229 231 232 231 233 236 235 237 239 237 238 239 237 238 236 234 236 238 238 240 242 243 243 242 241 245 235 233 230 228 226 227 222 229 227 226 225
228 226 224 224 224 225 226 227 227 228 230 232 234 238 239 239 236 233 237 239 231 232 224 235 237 238 239 240 237 243 244 243 245 235 231 231 232 231 230 223 230 231 229
223 223 223 222 222 223 224 224 226 228 229 231 232 233 234 236 236 231 238 234 234 228 230 227 234 237 240 239 239 241 241 241 245 240 236 232 235 238 234 235 228 228 231
222 221 220 218 220 221 221 223 224 224 227 228 229 231 231 235 234 234 235 232 236 236 229 228 231 232 236 241 241 239 243 243 246 244 243 240 242 242 241 239 239 224 227
220 219 218 220 218 219 220 221 221 221 223 225 225 229 230 232 234 235 236 234 235 232 235 229 231 228 234 235 236 239 237 242 246 244 243 244 242 241 244 241 238 240 227
219 216 217 217 218 218 219 220 220 220 222 223 224 227 225 226 227 230 233 232 233 234 232 231 231 235 230 238 241 239 234 238 237 246 243 243 243 243 244 244 245 242 242
221 217 215 215 215 217 218 220 221 222 222 223 223 223 221 223 227 229 230 232 234 231 231 233 236 235 233 238 236 237 237 238 237 237 238 245 244 241 243 243 244 246 247
221 221 218 215 215 216 216 219 221 222 222 223 222 222 224 225 227 229 228 232 234 234 232 234 235 235 238 238 239 236 237 240 238 240 233 240 240 240 238 239 241 242 245
212 217 218 217 215 215 216 217 219 221 223 223 224 224 227 226 229 230 233 233 231 229 228 230 232 234 231 232 238 236 238 240 237 237 237 238 234 237 237 236 240 242 242
217 212 215 217 216 216 216 217 219 220 221 223 226 226 227 228 229 230 232 230 230 228 229 229 227 231 229 232 236 236 241 242 240 239 236 234 234 236 238 239 241 241 242
217 216 215 216 219 218 218 219 220 222 223 224 224 225 227 230 230 230 229 229 229 227 228 227 228 228 230 231 232 234 235 230 233 239 240 240 234 234 237 239 240 242 244
216 216 217 218 220 222 220 220 221 223 224 226 226 227 227 228 229 228 230 228 229 230 228 227 228 229 231 230 230 231 229 230 236 236 237 236 234 236 234 236 236 238 239
218 219 217 219 221 223 225 225 225 225 226 227 227 228 230 231 229 228 227 227 229 230 230 230 231 232 233 233 232 232 232 233 236 233 236 235 233 234 234 235 236 239 239
218 220 220 220 221 224 225 226 227 228 228 230 229 230 231 232 230 229 228 226 227 229 230 231 232 233 235 236 235 231 236 236 237 235 237 236 234 234 235 235 236 238 239
220 222 221 220 222 224 226 227 227 228 229 231 230 232 233 233 233 231 231 229 231 230 232 231 233 235 234 236 234 237 238 238 237 237 238 237 236 237 236 237 237 238 239
224 225 226 224 225 226 228 227 228 229 230 229 231 230 234 232 234 235 233 234 234 234 235 234 235 235 235 238 236 239 239 239 238 238 239 240 239 239 239 239 240 240 241
231 228 228 228 229 230 229 228 228 230 230 232 231 231 233 234 233 234 234 235 236 237 237 238 237 237 236 238 238 241 241 238 240 239 240 241 241 240 239 240 242 241 243
233 232 231 227 229 231 233 234 234 231 230 231 232 234 233 234 235 235 236 237 237 236 236 236 236 237 238 238 239 241 241 240 240 239 241 241 240 240 241 240 241 242 244
236 236 233 232 230 230 231 235 237 236 236 235 234 233 235 236 237 237 238 237 237 238 239 239 238 238 239 239 239 241 242 243 243 244 244 243 242 241 242 242 243 244 245
239 239 237 236 235 236 234 234 237 239 239 236 237 236 237 238 238 238 238 238 238 239 238 239 240 240 240 240 241 239 243 244 244 246 246 246 245 244 244 244 244 244 246